Location: The Saddle
(36.8333°N, 80.3417°W)
Time: 10:19:07
(UTC-04:00)

Vanguard 2 Rocket - Pass Details

Date: 01 February 2023
Orbit: 555 x 3316 km, 32.9° (Epoch: 25 March)

Event Time Altitude Azimuth Distance (km) Brightness Sun altitude
Rises 18:12:33 0° 253° (WSW) 3,536 12.9 -5.7°
Reaches altitude 10° 18:18:08 10° 212° (SSW) 3,210 10.5 -6.8°
Maximum altitude 18:19:13 10° 204° (SSW) 3,311 10.4 -7.0°
Drops below altitude 10° 18:20:23 10° 196° (SSW) 3,468 10.3 -7.2°
Sets 18:28:41 0° 161° (SSE) 5,385 10.8 -8.8°
